Regional Weather Roundup
Issued by NWS

Home | Current Version | Previous Version | Text Only | Print | Product List | Glossary On
Versions: 1 2 3 4 5 6 7 8 9 10 11 12 13 14 15 16 17 18 19 20 21 22 23 24 25 26 27 28 29 30 31 32 33 34 35 36 37 38 39 40 41 42 43 44 45 46 47 48 49 50
000
ASUS42 KTBW 011110
RWRFL
FLORIDA REGIONAL WEATHER ROUNDUP
NATIONAL WEATHER SERVICE TAMPA BAY RUSKIN FL
700 AM EDT MON SEP 01 2014

NOTE: "FAIR" INDICATES FEW OR NO CLOUDS BELOW 12,000 FEET WITH NO
SIGNIFICANT WEATHER AND/OR OBSTRUCTIONS TO VISIBILITY.


FLZ001>010-012>015-112-114-115-011200-
PANHANDLE FLORIDA

CITY           SKY/WX    TMP DP  RH WIND       PRES   REMARKS
PENSACOLA      PTCLDY    77  76  96 NE5       30.05R
PENSACOLA NAS  PTCLDY    76  75  97 CALM      30.05R
MILTON NAS     PTCLDY    73  71  93 CALM      30.07R
CRESTVIEW      PTCLDY    71  70  96 CALM      30.09R
DUKE FIELD     FAIR      71  71 100 N2        30.07R
VALPARAISO     MOCLDY    75  73  93 N3        30.06S
MARY ESTHER    PTCLDY    75  70  85 N2        30.05R
TRI COUNTY     FAIR      69  68  96 CALM      30.09R
PANAMA CITY    FAIR      75  72  90 CALM      30.06R
TYNDALL AFB    CLEAR     77  77 100 E3        30.08R
APALACHICOLA   CLEAR     76  75  97 NE3       30.07R

STATION/POSITION SKY/WX   TEMP    WIND        PRES    WAVE   SWELL
                          AIR SEA DIR/SP/G            HT/PER HT/PER
                          (F)     (DEG/KT/KT) (MB)    (FT/S) (FT/S)
30.1N   87.6W              84 86  120/  8/  8 1017.3R   3/ 7   3/ 7
29.2N   88.2W                     VRB 12        N/A
28.8N   86.0W              84 86  120/ 10/ 12 1017.2R   4/ 6   3/ 6
PANAMA CITY BEAC           79 86   60/  5/  6 1017.9R
CAPE SAN BLAS    NOT AVBL
TOWER C                    82     140/  4/  4 1018.2R
28.5N   84.5W              85 86  100/ 10/ 12 1017.5R   3/ 7   2/ 7

$$
FLZ011-016>038-118-127-128-134-139-239-011200-
NORTH FLORIDA

CITY           SKY/WX    TMP DP  RH WIND       PRES   REMARKS
MARIANNA       PTCLDY    73  73 100 CALM      30.09R
TALLAHASSEE    MOCLDY    75  71  87 CALM      30.09R
PERRY          PTCLDY    73  72  94 CALM      30.10R
CROSS CITY       N/A     73  71  93 N3        30.09R
LAKE CITY      FAIR      70  70 100 CALM      30.09S
GAINESVILLE    CLEAR     73  71  93 CALM      30.10R
MAYPORT NAS    CLEAR     76  74  93 S3        30.09R
JACKSONVILLE   PTCLDY    74  73  97 CALM      30.08S
JAX NAS        PTCLDY    82  75  79 SE5       30.10R
JAX CRAIG      CLEAR     74  72  93 CALM      30.09R
JAX CECIL      CLEAR     70  70 100 CALM      30.10R
FERNANDINA BEA FAIR      77  73  88 CALM      30.08R
ST AUGUSTINE   CLEAR     75  73  93 CALM      30.11R

STATION/POSITION SKY/WX   TEMP    WIND        PRES    WAVE   SWELL
                          AIR SEA DIR/SP/G            HT/PER HT/PER
                          (F)     (DEG/KT/KT) (MB)    (FT/S) (FT/S)
SHELL POINT                77      20/  3/  5   N/A
KEATON BEACH               74      60/  6/  7 1019.1R
CEDAR KEY                  79      90/  8/  9 1018.4R
FERNANDINA                 78 87  160/  3/  6 1018.4R
30.7N   81.3W                 84                N/A     2/ 9
MAYPORT                    78 85  190/  4/  5   N/A
31.4N   80.9W              83 84  220/ 10/ 12 1019.1R   3/ 8   2/ 8
ST AUGUSTINE               76     260/  2/  3 1020.0R

$$
FLZ040-043>046-052-053-057-058-063-144-011200-
INTERIOR CENTRAL FLORIDA

CITY           SKY/WX    TMP DP  RH WIND       PRES   REMARKS
OCALA          CLEAR     73  72  94 N3        30.10R
LEESBURG       CLEAR     79  75  87 CALM      30.09R
SANFORD        CLEAR     76  74  93 CALM      30.08R
ORLANDO EXEC   CLEAR     77  74  90 CALM      30.08R
ORLANDO INTL   CLEAR     76  74  93 CALM      30.09R
KISSIMMEE      CLEAR     79  75  89 CALM      30.09
WINTER HAVEN   CLEAR     77  74  90 SE3       30.10R
LAKELAND       CLEAR     79  72  78 CALM      30.08R
BARTOW         FAIR      73 N/A N/A CALM      30.09R
OKEECHOBEE       N/A     72  72 100 MISG        N/A

$$
FLZ041-047-054-059-064-141-147-011200-
EAST CENTRAL FLORIDA

CITY           SKY/WX    TMP DP  RH WIND       PRES   REMARKS
ORMOND BEACH   CLEAR    N/A N/A N/A CALM      30.10  FOG
DAYTONA BEACH  PTCLDY    75  74  96 CALM      30.09R
DELAND           N/A     73  73 100 CALM      30.10R
NEW SMYRNA BEA CLEAR     77  73  88 CALM      30.10
JFK SPACE CTR  CLEAR     74  73  97 SE3       30.08R
TITUSVILLE     CLEAR     72  72 100 CALM      30.08
CAPE CANAVERAL CLEAR     74  72  95 E5        30.07R FOG
PATRICK AFB    CLEAR     82  76  82 SE6       30.07R
MELBOURNE      PTCLDY    76  73  91 CALM      30.07R
VERO BEACH     CLEAR     72  67  84 CALM      30.07R
FT PIERCE      CLEAR     74  71  91 CALM      30.07R
STUART         PTCLDY    79  73  83 E7        30.07S

STATION/POSITION SKY/WX   TEMP    WIND        PRES    WAVE   SWELL
                          AIR SEA DIR/SP/G            HT/PER HT/PER
                          (F)     (DEG/KT/KT) (MB)    (FT/S) (FT/S)
28.5N   80.2W              84 85  120/  2/  4 1018.8R
28.9N   78.5W              82 84  120/  6/  8 1019.5R   3/ 8   3/ 8
TRIDENT PIER               81 86  100/  4/  5 1017.9R
28.4N   80.5W                 84                N/A     2/ 9
27.6N   80.2W                 86                N/A     2/ 8

$$
FLZ050-056-061-142-242-148-248-149-249-151-251-155-255-
160-260-011200-
WEST CENTRAL FLORIDA

CITY           SKY/WX    TMP DP  RH WIND       PRES   REMARKS
CRYSTAL RIVER  FAIR      72  70  94 CALM      30.08R
INVERNESS      FAIR      73  72  94 CALM      30.09R
BROOKSVILLE    CLEAR     74  72  93 CALM      30.09R
ZEPHYRHILLS    FAIR      68  68 100 CALM      30.10R FOG
CLEARWATER     CLEAR     79  76  90 E3        30.07R
TAMPA INTL     PTCLDY    77  73  87 CALM      30.08R
TAMPA EXEC     CLEAR     73  72  94 CALM      30.09R FOG
PLANT CITY     CLEAR     75 N/A N/A CALM      30.10R HAZE
MACDILL AFB    CLEAR     76  76 100 E6        30.08R
ST PETERSBURG  CLEAR     81  75  82 SE7       30.05R
SARASOTA       CLEAR     77  73  87 E3        30.05R
VENICE           N/A    N/A N/A N/A MISG        N/A

STATION/POSITION SKY/WX   TEMP    WIND        PRES    WAVE   SWELL
                          AIR SEA DIR/SP/G            HT/PER HT/PER
                          (F)     (DEG/KT/KT) (MB)    (FT/S) (FT/S)
CEDAR KEY                  79      90/  8/  9 1018.4R
28.5N   84.5W              85 86  100/ 10/ 12 1017.5R   3/ 7   2/ 7
27.3N   84.3W                 86                N/A     3/ 6
CLEARWATER BEACH           80 88   70/  6/  7 1017.8R
MIDDLE TAMPA BAY           79     140/  8/ 10 1018.0R
VENICE                     76 87   90/  6/  7 1017.6R

$$
FLZ066-069-070-075>078-162-262-165-265-011200-
SOUTHWEST FLORIDA AND KEYS

CITY           SKY/WX    TMP DP  RH WIND       PRES   REMARKS
PUNTA GORDA    CLEAR     75  73  93 E3        30.08R
FT MYERS       CLEAR     76  74  93 E5        30.05R
SOUTHWEST INTL CLEAR     73  73 100 E3        30.07R
NAPLES         CLEAR     76  75  97 E5        30.05
MARCO ISLAND   SUNNY     75  73  94 NE5       30.05R
MARATHON       PTCLDY    83  74  74 SE6       30.04R
KEY WEST NAS   PTCLDY    84  76  76 E12       30.03R
KEY WEST INTL  PTCLDY    85  74  69 E15       30.03R

STATION/POSITION SKY/WX   TEMP    WIND        PRES    WAVE   SWELL
                          AIR SEA DIR/SP/G            HT/PER HT/PER
                          (F)     (DEG/KT/KT) (MB)    (FT/S) (FT/S)
VENICE                     76 87   90/  6/  7 1017.6R
NAPLES                     76      70/  3/  5 1018.3R
DRY TORTUGAS               84     130/  9/ 10 1016.5R
NW FL BAY                  84      80/  9/ 10 1017.0S
SAND KEY                   84     120/ 13/ 17 1016.7R
SOMBRERO KEY               83      80/ 16/ 19 1017.6R
LONG KEY                   83 86  100/  7/  8 1017.6R
MOLASSES REEF              84 87  120/ 14/ 15 1017.3R

$$
FLZ067-068-071>074-168-172>174-011200-
SOUTHEAST FLORIDA

CITY           SKY/WX    TMP DP  RH WIND       PRES   REMARKS
W PALM BEACH   PTCLDY    83  74  74 E9        30.05R
FT LAUDER-EXEC PTCLDY    82  76  81 E9        30.05R
FT LAUDERDALE  PTCLDY    84  74  71 E10       30.05R
POMPANO BEACH    N/A    N/A N/A N/A MISG      30.05R
PEMBROKE PINES PTCLDY    83  75  77 E8        30.06R
OPA LOCKA      PTCLDY    82  74  76 SE6       30.06R
MIAMI          PTCLDY    83  74  74 E7        30.05R
WEST KENDALL   PTCLDY    80  74  81 CALM      30.05R
HOMESTEAD      PTCLDY    82  74  77 E6        30.05R

STATION/POSITION SKY/WX   TEMP    WIND        PRES    WAVE   SWELL
                          AIR SEA DIR/SP/G            HT/PER HT/PER
                          (F)     (DEG/KT/KT) (MB)    (FT/S) (FT/S)
PORT EVERGLADES            84      90/  7/ 11 1017.5
VIRGINIA KEY               85 87  100/ 10/ 12   N/A
LAKE WORTH                 84 86  100/ 12/ 14 1017.6R
FOWEY ROCKS                84 86  100/ 13/ 15 1017.8R
SETTLEMENT POINT           83     100/ 10/ 11 1019.0R

$$



USA.gov is the U.S. government's official web portal to all federal, state and local government web resources and services.